Terug naar catalogus

YUKONGZHE

ActiefCommunicatieSSO
NORAD 63992·PAYLOAD·🇨🇳 China
Deze satellietnaam is nog niet bevestigd door officiële bronnen.

Gelanceerd May 14, 2025 vanaf Jiuquan Satellite Launch Center

Loading…

Volgende Passages (komende 24 uur)

TLE

VersSource: Space-Track

Epoch: Sep 14, 2026, 12:52 UTC

1 63992U 25100L   26257.53629071  .00010203  00000-0  45632-3 0  9991
2 63992  97.3590 328.4580 0007840   3.5818 356.5472 15.21467988 74192

Volg YUKONGZHE in realtime met AllMySat

Download on the App Store